Location: Espelette
(43.3402°N, 1.4474°W)
Time: 19:30:52
(UTC+00:00)

Cosmos 2082 Rocket - Pass Details

Date: 19 May 2025
Orbit: 831 x 853 km, 71.0° (Epoch: 21 June)

Event Time Altitude Azimuth Distance (km) Brightness Sun altitude
Exits shadow 23:23:30 17° 250° (WSW) 1,967 4.0 -26.0°
Maximum altitude 23:27:01 33° 305° (NW) 1,361 3.6 -26.2°
Drops below altitude 10° 23:32:05 10° 9° (N) 2,455 5.5 -26.3°
Sets 23:34:47 0° 19° (NNE) 3,396 6.3 -26.4°
